Location: AstroGeek's Observatory
(41.9520°N, 70.9880°W)
Time: 04:15:58
(UTC-04:00)

ISS - All Passes

Search period start: 29 April 2016 00:00
Search period end: 09 May 2016 00:00
Orbit: 402 x 405 km, 51.6° (Epoch: 28 April)

Date Brightness Start Highest point End Pass type
(mag) Time Alt. Az. Time Alt. Az. Time Alt. Az.
29 Apr - 07:39:16 10° SE 07:40:03 11° SE 07:40:51 10° ESE daylight
29 Apr - 09:12:46 10° SW 09:16:02 88° NW 09:19:19 10° NE daylight
29 Apr - 10:50:19 10° WNW 10:52:52 21° NNW 10:55:26 10° NE daylight
29 Apr - 12:28:12 10° NW 12:30:14 15° N 12:32:16 10° NE daylight
29 Apr - 14:04:31 10° NW 14:07:28 30° NNE 14:10:24 10° E daylight
29 Apr - 15:40:53 10° WNW 15:43:59 40° SW 15:47:04 10° SSE daylight
30 Apr - 08:20:29 10° SW 08:23:37 47° SE 08:26:48 10° ENE daylight
30 Apr - 09:57:21 10° W 10:00:13 27° NNW 10:03:06 10° NE daylight
30 Apr - 11:35:29 10° NW 11:37:29 15° N 11:39:29 10° NE daylight
30 Apr - 13:12:11 10° NW 13:14:50 22° NNE 13:17:27 10° ENE daylight
30 Apr - 14:48:19 10° WNW 14:51:36 79° SW 14:54:51 10° SE daylight
01 May - 07:28:34 10° SSW 07:31:17 25° SE 07:34:02 10° ENE daylight
01 May - 09:04:30 10° W 09:07:37 41° NNW 09:10:46 10° NE daylight
01 May - 10:42:34 10° NW 10:44:44 16° N 10:46:54 10° NNE daylight
01 May - 12:19:48 10° NNW 12:22:07 18° NNE 12:24:27 10° ENE daylight
01 May - 13:55:53 10° NW 13:59:07 56° NNE 14:02:20 10° ESE daylight
01 May - 15:33:03 10° W 15:35:18 17° SW 15:37:32 10° S daylight
02 May - 06:37:22 10° SSE 06:39:02 13° SE 06:40:41 10° E daylight
02 May - 08:11:51 10° WSW 08:15:05 72° NW 08:18:22 10° NE daylight
02 May - 09:49:33 10° WNW 09:52:00 19° NNW 09:54:27 10° NE daylight
02 May - 11:27:18 10° NNW 11:29:23 16° N 11:31:27 10° NE daylight
02 May - 13:03:31 10° NW 13:06:33 34° NNE 13:09:35 10° E daylight
02 May - 14:40:01 10° WNW 14:42:59 32° SW 14:45:56 10° SSE daylight
03 May - 07:19:25 10° SW 07:22:38 60° SE 07:25:52 10° ENE daylight
03 May - 08:56:32 10° WNW 08:59:18 25° NNW 09:02:05 10° NE daylight
03 May - 10:34:37 10° NW 10:36:36 15° N 10:38:36 10° NE daylight
03 May - 12:11:10 10° NW 12:13:55 24° NNE 12:16:39 10° ENE daylight
03 May - 13:47:22 10° WNW 13:50:36 63° SW 13:53:49 10° SE daylight
04 May - 06:27:20 10° SSW 06:30:14 30° SE 06:33:10 10° ENE daylight
04 May - 08:03:36 10° W 08:06:39 35° NNW 08:09:43 10° NE daylight
04 May - 09:41:44 10° NW 09:43:49 16° N 09:45:55 10° NNE daylight
04 May - 11:18:46 10° NW 11:21:12 19° NNE 11:23:37 10° ENE daylight
04 May - 12:54:51 10° NW 12:58:07 69° NNE 13:01:22 10° ESE daylight
04 May - 14:32:24 10° W 14:34:13 14° SW 14:36:00 10° SSW daylight
05 May - 05:35:47 10° S 05:37:55 16° SE 05:40:04 10° E daylight
05 May - 07:10:51 10° WSW 07:14:04 59° NNW 07:17:19 10° NE daylight
05 May - 08:48:42 10° WNW 08:51:03 18° NNW 08:53:23 10° NNE daylight
05 May - 10:26:17 10° NNW 10:28:26 16° N 10:30:35 10° NE daylight
05 May - 12:02:27 10° NW 12:05:33 40° NNE 12:08:39 10° E daylight
05 May - 13:39:07 10° WNW 13:41:54 26° SW 13:44:41 10° SSE daylight
06 May - 06:18:18 10° SW 06:21:34 75° SE 06:24:50 10° ENE daylight
06 May - 07:55:38 10° WNW 07:58:18 22° NNW 08:00:58 10° NE daylight
06 May - 09:33:39 10° NW 09:35:38 15° N 09:37:38 10° NE daylight
06 May - 11:10:04 10° NW 11:12:54 27° NNE 11:15:45 10° E daylight
06 May - 12:46:20 10° WNW 12:49:31 50° SW 12:52:41 10° SE daylight
07 May - 05:26:04 10° SSW 05:29:07 37° SE 05:32:11 10° ENE daylight
07 May - 07:02:38 10° W 07:05:37 31° NNW 07:08:35 10° NE daylight
07 May - 08:40:47 10° NW 08:42:50 15° N 08:44:52 10° NE daylight
07 May - 10:17:40 10° NW 10:20:11 20° NNE 10:22:43 10° ENE daylight
07 May - 11:53:45 10° NW 11:57:02 84° NE 12:00:18 10° ESE daylight
07 May - 13:31:56 10° WSW 13:33:02 11° SW 13:34:08 10° SSW daylight
08 May - 04:34:16 10° S 04:36:45 20° SE 04:39:13 10° E visible
08 May - 06:09:47 10° WSW 06:12:59 49° NNW 06:16:11 10° NE daylight
08 May - 07:47:46 10° NW 07:50:01 17° N 07:52:16 10° NNE daylight
08 May - 09:25:11 10° NNW 09:27:24 17° N 09:29:38 10° NE daylight
08 May - 11:01:18 10° NW 11:04:28 47° NNE 11:07:38 10° ESE daylight
08 May - 12:38:10 10° W 12:40:44 21° SW 12:43:17 10° S daylight
